Regional Weather Roundup
Issued by NWS

Home | Current Version | Previous Version | Text Only | Print | Product List | Glossary Off
Versions: 1 2 3 4 5 6 7 8 9 10 11 12 13 14 15 16 17 18 19 20 21 22 23 24 25 26 27 28 29 30 31 32 33 34 35 36 37 38 39 40 41 42 43 44 45 46 47 48 49 50

000
ASUS45 KTFX 011510
RWRMT
MONTANA REGIONAL WEATHER ROUNDUP
NATIONAL WEATHER SERVICE GREAT FALLS MT
900 AM MDT WED JUL 01 2015

NOTE: "FAIR" INDICATES FEW OR NO CLOUDS BELOW 12000 FEET WITH NO
SIGNIFICANT WEATHER AND/OR OBSTRUCTIONS TO VISIBILITY.

MTZ001>007-043-011600-
WEST OF THE DIVIDE

CITY           SKY/WX    TMP DP  RH WIND       PRES   REMARKS
KALISPELL      SUNNY     74  54  49 CALM      30.05S
MISSOULA       SUNNY     68  49  50 S3        30.10S
BUTTE          SUNNY     66  46  48 CALM      30.21F
MULLAN PASS    SUNNY     68  43  40 CALM      30.22S
DEER LODGE       N/A     70  50  49 CALM      30.20S
EUREKA           N/A     68  54  60 NW9       30.08F
HAMILTON         N/A     72  50  46 S5        30.10F
RONAN            N/A     75  52  44 CALM      30.09S
$$

MTZ008-052>055-011600-
SOUTHWEST MONTANA

CITY           SKY/WX    TMP DP  RH WIND       PRES   REMARKS
BOZEMAN        MOSUNNY   72  49  44 CALM      30.13S
DILLON         SUNNY     70  47  43 CALM      30.17S
W YELLOWSTONE  MOSUNNY   63  50  63 CALM      30.27F
THREE FORKS      N/A     71  71 100 NE1       30.11R
TWIN BRIDGES     N/A     69  48  46 S6        30.13S
$$

MTZ009-010-012-014-046-048-049-054-011600-
EAST SLOPES AND CENTRAL MONTANA

CITY           SKY/WX    TMP DP  RH WIND       PRES   REMARKS
CUT BANK       MOSUNNY   69  55  60 NE8       30.08S HAZE
GREAT FALLS    SUNNY     72  54  53 SW8       30.07R
MALMSTROM AFB  SUNNY     70  55  59 SW2       30.07R
HELENA         SUNNY     72  51  47 N3        30.09S
$$

MTZ011-013-016-021-045-047-050-051-011600-
NORTH CENTRAL MONTANA

CITY           SKY/WX    TMP DP  RH WIND       PRES   REMARKS
HAVRE          LGT RAIN  63  58  83 CALM      30.04R
LEWISTOWN      PTSUNNY   72  54  53 N3        30.09
CHINOOK          N/A     64  57  77 W7        30.03S
FORT BENTON      N/A     70  55  60 NE5       30.06S
$$

MTZ017>020-022>027-061-062-011600-
NORTHEAST MONTANA

CITY           SKY/WX    TMP DP  RH WIND       PRES   REMARKS
GLASGOW        CLOUDY    67  59  75 CALM      30.01R HAZE
JORDAN           N/A     69  59  70 VRB3      30.01S
SIDNEY         PTSUNNY   66  61  82 N6        30.00R
WOLF POINT     MOSUNNY   68  60  75 SE6       30.00S HAZE
MALTA            N/A     67  56  67 CALM      29.98S
PLENTYWOOD       N/A     63  63 100 N5        30.00S VSB 3/4
POPLAR           N/A     66  63  88 E6        30.00S VSB 1
$$

MTZ028>42-056>058-011600-
SOUTHCENTRAL AND SOUTHEAST MONTANA

CITY           SKY/WX    TMP DP  RH WIND       PRES   REMARKS
BAKER          CLOUDY    63  62  97 N7        30.01R
BILLINGS       MOSUNNY   72  53  51 S6        30.06S
LIVINGSTON     SUNNY     70  52  52 NW8       30.12S
MILES CITY     SUNNY     72  60  66 NE12      30.00R HAZE
FORSYTH          N/A     73  55  53 W5        30.00S
LAUREL           N/A     74  52  46 CALM      30.05S
ROUNDUP          N/A     73  52  47 CALM      29.96S
$$

REGIONAL REPORTS...DAKOTAS

CITY           SKY/WX    TMP DP  RH WIND       PRES   REMARKS
WILLISTON      CLOUDY    66  59  78 NE5       29.99R HAZE
MINOT          CLOUDY    64  62  93 CALM      29.95F FOG
DICKINSON      CLOUDY    62  59  90 NE8       29.97S FOG
BEACH          LGT RAIN  63  63 100 NE5       30.01R
CROSBY         FOG       61  61 100 NW3       30.00R VSB 1
BISMARCK       CLOUDY    68  64  87 E7        29.95F
GRAND FORKS    SUNNY     69  60  73 CALM      29.94S
FARGO          SUNNY     70  62  76 S9        29.95S
BUFFALO SD       N/A     71  62  73 N14       29.93R
RAPID CITY     SUNNY     79  60  52 N21G28    29.99R
$$

REGIONAL REPORTS...WYOMING/IDAHO/WASHINGTON

CITY           SKY/WX    TMP DP  RH WIND       PRES   REMARKS
GILLETTE       SUNNY     76  54  46 N6        30.09S
SHERIDAN       SUNNY     75  55  49 CALM      30.08S
BUFFALO WY     SUNNY     76  50  40 NW3       30.15S
CODY           MOSUNNY   72  48  43 E3        30.14S
YELLOWSTONE LA   N/A     59  51  75 VRB3      30.36S
IDAHO FALLS    MOSUNNY   68  60  75 W6        30.13S
SALMON         SUNNY     68  54  60 NW3       30.11F
BOISE          SUNNY     76  52  43 W5        30.02R
SPOKANE        MOSUNNY   74  49  41 VRB3      30.01S
$$

REGIONAL REPORTS...ALBERTA

CITY           SKY/WX    TMP DP  RH WIND       PRES   REMARKS
EDMONTON       PTSUNNY   63  55  77 NW7       30.02R
CALGARY        PTSUNNY   59  54  82 N16G26    30.13R
LETHBRIDGE     PTSUNNY   64  55  72 N7        30.09R
MEDICINE HAT   PTSUNNY   61  59  94 E3        30.03  SMOKE
WATERTON GATE    N/A     63  57  82 NE12        N/A
MILK RIVER       N/A     63  57  82 N9          N/A
ONEFOUR          N/A     59  57  94 N18         N/A
$$

REGIONAL REPORTS...SASKATCHEWAN

CITY           SKY/WX    TMP DP  RH WIND       PRES   REMARKS
SWIFT CURRENT  PTSUNNY   64  57  77 W5        30.02S HAZE
REGINA         CLOUDY    59  59 100 W3        30.00R FOG
SASKATOON      PTSUNNY   64  61  88 CALM      29.97S
CYPRESS HILLS    N/A     64  54  68 NW5         N/A
VAL MARIE        N/A     66  57  72 E2          N/A
$$



USA.gov is the U.S. government's official web portal to all federal, state and local government web resources and services.